Location: Paris
(48.6709°N, 2.3750°E)
Time: 12:39:38
(UTC+02:00)

CUBESAT XI-V - Pass Details

Date: 27 June 2022
Orbit: 668 x 690 km, 98.1° (Epoch: 17 August)

Event Time Altitude Azimuth Distance (km) Brightness Sun altitude
Exits shadow 02:33:49 - 128° (SE) 2,187 ? -17.4°
Reaches altitude 10° 02:34:01 10° 127° (SE) 2,112 ? -17.4°
Maximum altitude 02:38:04 31° 65° (ENE) 1,175 ? -17.3°
Drops below altitude 10° 02:42:07 10° 4° (N) 2,114 ? -17.2°
Sets 02:44:32 0° 354° (N) 3,030 ? -17.1°
